Location: Asheville, NC
(35.6000°N, 82.5500°W)
Time: 18:09:16
(UTC-04:00)

Vanguard 1 Rocket - Pass Details

Date: 08 December 2017
Orbit: 652 x 4225 km, 34.3° (Epoch: 15 July)

Event Time Altitude Azimuth Distance (km) Brightness Sun altitude
Rises 15:58:51 0° 196° (SSW) 4,074 11.8 12.3°
Reaches altitude 10° 16:01:46 10° 182° (S) 3,478 11.1 11.9°
Maximum altitude 16:09:04 26° 130° (SE) 3,316 10.2 10.7°
Drops below altitude 10° 16:20:46 10° 82° (E) 5,770 11.0 8.8°
Sets 16:27:32 0° 73° (ENE) 7,417 11.4 7.7°
